Crawford Co (RSV)

 

Airport Diagram
No Airport Diagram Available
Current Weather/Forecast (MVFR Conditions)
METAR KRSV 280455Z AUTO 33005KT 10SM BKN012 M06/M07 A3050 RMK AO2 T10571067
TAF

Airport Information

All Charts
General
Chart Name View
TAKEOFF MINIMUMS
ALTERNATE MINIMUMS
TAKEOFF MINIMUMS
ALTERNATE MINIMUMS

Approaches
Chart Name Download
RNAV (GPS) RWY 09
RNAV (GPS) RWY 17
RNAV (GPS) RWY 27
NDB RWY 17
RNAV (GPS) RWY 09
RNAV (GPS) RWY 17
RNAV (GPS) RWY 27
NDB RWY 17


Airport Statistics
Departures Arrivals Local
All Collected Stats since June 2016: 22 9 4
2021 Stats: 0 0 0
January Stats: 0 0 0

Inbound Traffic (Arrivals) - 0

No inbound traffic.


Outbound Traffic (Departures) - 0

No outbound traffic.


Local Traffic (Pattern) - 0

No local traffic.